Location: Holcomb Observatory
(44.4922°N, 73.1654°W)
Time: 20:25:42
(UTC-04:00)

Cosmos 2360 Rocket - Visible Passes

Search period start: 06 May 2016 00:00
Search period end: 16 May 2016 00:00
Orbit: 835 x 844 km, 71.0° (Epoch: 06 May)

Date Brightness Start Highest point End Pass type
(mag) Time Alt. Az. Time Alt. Az. Time Alt. Az.
06 May 4.3 00:29:52 10° W 00:34:03 21° NW 00:38:15 10° N visible
06 May 2.1 22:31:15 33° S 22:33:47 70° ESE 22:39:24 10° NNE visible
07 May 4.3 00:14:03 10° W 00:18:20 22° NW 00:22:39 10° N visible
07 May 2.1 22:14:22 21° S 22:18:08 66° ESE 22:23:44 10° NNE visible
07 May 4.3 23:58:14 10° W 00:02:38 23° NW 00:07:03 10° N visible
08 May 2.2 21:56:58 10° S 22:02:29 62° ESE 22:08:02 10° NNE visible
08 May 4.3 23:42:25 10° WSW 23:46:55 24° NW 23:51:27 10° N visible
09 May 2.2 21:41:20 10° S 21:46:50 58° ESE 21:52:21 10° NNE visible
09 May 4.2 23:26:37 10° WSW 23:31:13 25° NW 23:35:51 10° N visible
10 May 2.3 21:25:43 10° S 21:31:11 54° ESE 21:36:40 10° NNE visible
10 May 4.2 23:10:49 10° WSW 23:15:30 27° NW 23:20:14 10° N visible
11 May 2.4 21:10:07 10° S 21:15:32 51° ESE 21:20:58 10° NE visible
11 May 4.2 22:55:01 10° WSW 22:59:48 28° NW 23:04:37 10° N visible
12 May 2.4 20:54:31 10° S 20:59:53 48° ESE 21:05:16 10° NE visible
12 May 4.1 22:39:14 10° WSW 22:44:06 29° NW 22:49:00 10° N visible
13 May 2.5 20:38:56 10° S 20:44:15 45° ESE 20:49:34 10° NE visible
13 May 4.1 22:23:27 10° WSW 22:28:24 31° NW 22:33:22 10° N visible
14 May 4.0 22:07:40 10° WSW 22:12:41 32° NW 22:17:45 10° N visible
15 May 4.0 21:51:54 10° WSW 21:57:00 34° NW 22:02:06 10° N visible
